Zurück zum Katalog

STARLINK-36169

AktivKommunikationVLEO
NORAD 66929·PAYLOAD·🇺🇸 United States

Gestartet Dec 7, 2025 von Vandenberg Space Force Base

Loading…

Nächste Überflüge (nächste 24 Stunden)

TLE

AktuellSource: CelesTrak SupGP

Epoche: Sep 14, 2026, 20:45 UTC

1 66929C 25286E   26257.86506944  .00026222  00000+0  77441-3 0  2575
2 66929  53.1573 195.8150 0001033 106.6212 334.0568 15.34390756    15

Verfolge STARLINK-36169 in Echtzeit mit AllMySat

Download on the App Store